STARLINK-34492

导读 | 星芒AI

STARLINK-34492 是 SpaceX Starlink 卫星互联网项目中的一颗低轨卫星,属于第三代星链卫星(v1.5 或 v2 架构)。它于2023年发射,运行在约550公里高度的近地轨道,旨在为全球用户提供高速互联网服务。该卫星采用先进推进系统和激光通信技术,提升网络稳定性和数据传输效率。作为星链星座的一部分,STARLINK-34492 有助于扩大覆盖范围,改善偏远地区网络接入,并支持未来星链的全球部署目标。

基本信息
目录编号:
64473
目录名称:
STARLINK-34492
国际标识:
2025-133B
轨道中心:
EARTH
卫星名称:
STARLINK-34492
卫星全名:
STARLINK-34492
卫星状态:
在轨 (已飞行139 天)
发射日期:
2025-06-23 UTC
国别 :
美国 (US)
星等 :
--
轨道信息
数据来源 国际轨道数据
星历时间: 2025-11-09T01:17:42+0800
21小时前
查看轨道信息
半长轴: 6825.308km
偏心率: 0.0001122
轨道倾角: 53.160°
近地点辐角 74.061°
升交点赤经 319.675°
平近点角 286.052°
近地点: 446.407km
远地点: 447.939km
周期: 93.528分钟
每日圈数: 15.396407
详细信息
使用方式:
暂无
2D轨道图
3D轨道图
轨道高度分析图
轨道倾角分析图
轨道综合分析图
查看轨道综合分析图